• In Portugal
  • List of Countries
  • For 7 days
  • Water Temperature
  • Satellite Maps
  • Weather Map
  • Weather Widgets
  • user-avatar
    Login

    Hourly Weather Sagaleipie

    Today, 20 February, Tuesday

    Time Temperature Precipitation Wind Pressure Humidity
    00:00 +25°C° 1.5 mm 1 mps 721 mmHg 93%
    01:00 +25°C° 1.5 mm 1 mps 721 mmHg 95%
    02:00 +24°C° 1.5 mm 1 mps 721 mmHg 96%
    03:00 +24°C° 0 mm 1 mps 721 mmHg 96%
    04:00 +24°C° 0 mm 1 mps 721 mmHg 97%
    05:00 +24°C° 0 mm 1 mps 721 mmHg 97%
    06:00 +25°C° 0 mm 1 mps 722 mmHg 93%
    07:00 +26°C° 0 mm 1 mps 722 mmHg 89%
    08:00 +26°C° 0 mm 1 mps 722 mmHg 85%
    09:00 +29°C° 0.3 mm 1 mps 722 mmHg 75%
    10:00 +31°C° 0.3 mm 2 mps 722 mmHg 65%
    11:00 +34°C° 0.3 mm 2 mps 722 mmHg 55%
    12:00 +32°C° 2.5 mm 2 mps 722 mmHg 59%
    13:00 +32°C° 2.5 mm 2 mps 721 mmHg 63%
    14:00 +31°C° 2.5 mm 2 mps 720 mmHg 67%
    15:00 +30°C° 0.4 mm 1 mps 720 mmHg 69%
    16:00 +30°C° 0.4 mm 1 mps 720 mmHg 72%
    17:00 +29°C° 0.4 mm 1 mps 720 mmHg 74%
    18:00 +28°C° 0.1 mm 1 mps 721 mmHg 78%
    19:00 +25°C° 0.1 mm 0 mps 721 mmHg 81%
    20:00 +23°C° 0.1 mm 0 mps 721 mmHg 85%
    21:00 +23°C° 0 mm 0 mps 722 mmHg 84%
    22:00 +23°C° 0 mm 0 mps 722 mmHg 83%
    23:00 +23°C° 0 mm 0 mps 722 mmHg 82%

    Tomorrow, 21 February, Wednesday

    Time Temperature Precipitation Wind Pressure Humidity
    00:00 +25°C° 0.3 mm 1 mps 722 mmHg 85%
    01:00 +24°C° 0.3 mm 1 mps 721 mmHg 89%
    02:00 +24°C° 0.3 mm 1 mps 721 mmHg 92%
    03:00 +24°C° 0.1 mm 1 mps 721 mmHg 93%
    04:00 +24°C° 0.1 mm 1 mps 721 mmHg 95%
    05:00 +24°C° 0.1 mm 1 mps 721 mmHg 97%
    06:00 +24°C° 0.1 mm 1 mps 722 mmHg 94%
    07:00 +25°C° 0.1 mm 1 mps 722 mmHg 91%
    08:00 +26°C° 0.1 mm 1 mps 723 mmHg 88%
    09:00 +27°C° 0 mm 1 mps 722 mmHg 79%
    10:00 +29°C° 0 mm 1 mps 722 mmHg 71%
    11:00 +31°C° 0 mm 1 mps 722 mmHg 62%
    12:00 +32°C° 0.1 mm 1 mps 721 mmHg 57%
    13:00 +33°C° 0.1 mm 1 mps 721 mmHg 53%
    14:00 +34°C° 0.1 mm 1 mps 720 mmHg 48%
    15:00 +33°C° 0.1 mm 1 mps 720 mmHg 52%
    16:00 +32°C° 0.1 mm 1 mps 720 mmHg 55%
    17:00 +32°C° 0.1 mm 1 mps 720 mmHg 58%
    18:00 +30°C° 0.2 mm 1 mps 720 mmHg 68%
    19:00 +28°C° 0.2 mm 1 mps 720 mmHg 78%
    20:00 +26°C° 0.2 mm 1 mps 721 mmHg 88%
    21:00 +25°C° 0 mm 1 mps 721 mmHg 90%
    22:00 +25°C° 0 mm 1 mps 721 mmHg 92%
    23:00 +25°C° 0 mm 1 mps 721 mmHg 95%

    Day after tomorrow, 22 February, Thursday

    Time Temperature Precipitation Wind Pressure Humidity
    00:00 +24°C° 0 mm 1 mps 721 mmHg 95%
    01:00 +24°C° 0 mm 1 mps 720 mmHg 96%
    02:00 +24°C° 0 mm 1 mps 720 mmHg 96%
    03:00 +24°C° 0 mm 1 mps 720 mmHg 96%
    04:00 +24°C° 0 mm 1 mps 720 mmHg 96%
    05:00 +24°C° 0 mm 1 mps 720 mmHg 96%
    06:00 +25°C° 0 mm 1 mps 720 mmHg 91%
    07:00 +25°C° 0 mm 1 mps 721 mmHg 86%
    08:00 +26°C° 0 mm 1 mps 722 mmHg 81%
    09:00 +28°C° 0 mm 1 mps 722 mmHg 73%
    10:00 +30°C° 0 mm 1 mps 721 mmHg 65%
    11:00 +31°C° 0 mm 2 mps 721 mmHg 56%
    12:00 +34°C° 0.1 mm 2 mps 720 mmHg 52%
    13:00 +35°C° 0.1 mm 2 mps 720 mmHg 48%
    14:00 +36°C° 0.1 mm 2 mps 719 mmHg 44%
    15:00 +34°C° 0.2 mm 2 mps 719 mmHg 50%
    16:00 +32°C° 0.2 mm 2 mps 719 mmHg 56%
    17:00 +30°C° 0.2 mm 2 mps 719 mmHg 62%
    18:00 +29°C° 0.2 mm 2 mps 719 mmHg 70%
    19:00 +27°C° 0.2 mm 2 mps 720 mmHg 79%
    20:00 +26°C° 0.2 mm 1 mps 721 mmHg 88%
    21:00 +25°C° 0 mm 1 mps 721 mmHg 90%
    22:00 +25°C° 0 mm 1 mps 721 mmHg 92%
    23:00 +24°C° 0 mm 1 mps 721 mmHg 94%

    23 February, Friday

    Time Temperature Precipitation Wind Pressure Humidity
    00:00 +24°C° 0 mm 1 mps 720 mmHg 94%
    01:00 +24°C° 0 mm 1 mps 720 mmHg 95%
    02:00 +23°C° 0 mm 1 mps 719 mmHg 95%
    03:00 +23°C° 0 mm 1 mps 719 mmHg 95%
    04:00 +23°C° 0 mm 1 mps 720 mmHg 95%
    05:00 +23°C° 0 mm 1 mps 720 mmHg 95%
    06:00 +24°C° 0 mm 1 mps 720 mmHg 88%
    07:00 +25°C° 0 mm 1 mps 721 mmHg 81%
    08:00 +26°C° 0 mm 2 mps 722 mmHg 73%
    09:00 +28°C° 0 mm 2 mps 722 mmHg 62%
    10:00 +31°C° 0 mm 2 mps 722 mmHg 51%
    11:00 +34°C° 0 mm 2 mps 721 mmHg 39%
    12:00 +35°C° 0 mm 2 mps 721 mmHg 37%
    13:00 +36°C° 0 mm 2 mps 720 mmHg 34%
    14:00 +36°C° 0 mm 2 mps 719 mmHg 31%
    15:00 +36°C° 0 mm 2 mps 719 mmHg 34%
    16:00 +34°C° 0 mm 1 mps 719 mmHg 37%
    17:00 +33°C° 0 mm 1 mps 719 mmHg 40%
    18:00 +31°C° 0 mm 1 mps 720 mmHg 47%
    19:00 +29°C° 0 mm 1 mps 720 mmHg 53%
    20:00 +27°C° 0 mm 1 mps 721 mmHg 60%
    21:00 +26°C° 0 mm 1 mps 721 mmHg 65%
    22:00 +25°C° 0 mm 1 mps 722 mmHg 69%
    23:00 +24°C° 0 mm 1 mps 722 mmHg 74%

    24 February, Saturday

    Time Temperature Precipitation Wind Pressure Humidity
    00:00 +24°C° 0 mm 1 mps 721 mmHg 75%
    01:00 +24°C° 0 mm 1 mps 721 mmHg 76%
    02:00 +23°C° 0 mm 1 mps 720 mmHg 77%
    03:00 +23°C° 0 mm 1 mps 721 mmHg 79%
    04:00 +20°C° 0 mm 0 mps 721 mmHg 81%
    05:00 +20°C° 0 mm 0 mps 721 mmHg 83%
    06:00 +23°C° 0 mm 1 mps 722 mmHg 75%
    07:00 +25°C° 0 mm 1 mps 722 mmHg 67%
    08:00 +26°C° 0 mm 1 mps 723 mmHg 59%
    09:00 +29°C° 0 mm 1 mps 723 mmHg 50%
    10:00 +31°C° 0 mm 1 mps 723 mmHg 41%
    11:00 +34°C° 0 mm 1 mps 722 mmHg 32%
    12:00 +36°C° 0 mm 1 mps 722 mmHg 29%
    13:00 +37°C° 0 mm 1 mps 721 mmHg 27%
    14:00 +40°C° 0 mm 1 mps 720 mmHg 25%
    15:00 +37°C° 0 mm 1 mps 720 mmHg 28%
    16:00 +35°C° 0 mm 1 mps 720 mmHg 32%
    17:00 +34°C° 0 mm 1 mps 720 mmHg 35%
    18:00 +32°C° 0 mm 1 mps 720 mmHg 40%
    19:00 +30°C° 0 mm 1 mps 721 mmHg 45%
    20:00 +29°C° 0 mm 1 mps 722 mmHg 50%
    21:00 +27°C° 0.1 mm 1 mps 722 mmHg 59%
    22:00 +26°C° 0.1 mm 1 mps 722 mmHg 68%
    23:00 +25°C° 0.1 mm 1 mps 722 mmHg 77%

    25 February, Sunday

    Time Temperature Precipitation Wind Pressure Humidity
    00:00 +25°C° 0.1 mm 1 mps 722 mmHg 81%
    01:00 +24°C° 0.1 mm 1 mps 722 mmHg 86%
    02:00 +23°C° 0.1 mm 1 mps 722 mmHg 90%
    03:00 +23°C° 0 mm 1 mps 722 mmHg 91%
    04:00 +21°C° 0 mm 0 mps 722 mmHg 92%
    05:00 +21°C° 0 mm 0 mps 722 mmHg 93%
    06:00 +24°C° 0 mm 1 mps 723 mmHg 84%
    07:00 +26°C° 0 mm 1 mps 723 mmHg 75%
    08:00 +27°C° 0 mm 1 mps 724 mmHg 65%
    09:00 +30°C° 0 mm 1 mps 723 mmHg 55%
    10:00 +33°C° 0 mm 1 mps 723 mmHg 44%
    11:00 +35°C° 0 mm 1 mps 723 mmHg 34%
    12:00 +37°C° 0 mm 1 mps 722 mmHg 30%
    13:00 +37°C° 0 mm 0 mps 721 mmHg 27%
    14:00 +38°C° 0 mm 0 mps 721 mmHg 24%
    15:00 +36°C° 0 mm 0 mps 721 mmHg 27%
    16:00 +36°C° 0 mm 1 mps 721 mmHg 31%
    17:00 +34°C° 0 mm 1 mps 720 mmHg 35%
    18:00 +32°C° 0.1 mm 1 mps 721 mmHg 42%
    19:00 +31°C° 0.1 mm 1 mps 722 mmHg 50%
    20:00 +29°C° 0.1 mm 2 mps 722 mmHg 57%
    21:00 +28°C° 0.9 mm 2 mps 722 mmHg 68%
    22:00 +26°C° 0.9 mm 2 mps 723 mmHg 79%
    23:00 +25°C° 0.9 mm 1 mps 723 mmHg 89%
    Show more